Home   Weather   Mumbai   Past weeks

Flag for India Past Weather in Mumbai, Maharashtra, India — Yesterday and Last 2 Weeks

Now
84 °F

Scattered clouds.


Feels Like: 91 °F
Forecast: 81 / 89 °F
Wind: 5 mph from Northeast

Location: Mumbai / Santacruz

Current Time: May 1, 2017 at 8:10:11 am

Latest Report: May 1, 2017 at 7:30 am


Visibility: 2 mi

Pressure: 29.83 "Hg

Humidity: 70%

Dew Point: 73 °F

Location of MumbaiLocation

Past Weather in Mumbai — Graph

°F

Mumbai Temperature Yesterday

Maximum temperature yesterday: 91 °F (at 12:00 pm)
Minimum temperature yesterday: 81 °F (at 3:30 am)
Average temperature yesterday: 85 °F

High & Low Weather Summary for the Past Weeks

 TemperatureHumidityPressure
High97 °F (Apr 16, 3:30 pm)89% (Apr 18, 6:00 am)29.92 "Hg (Apr 18, 6:00 am)
Low81 °F (Apr 18, 6:00 am)36% (Apr 16, 6:00 pm)29.68 "Hg (Apr 16, 3:30 pm)
Average86 °F69%29.81 "Hg
* Reported Apr 16 6:30 am — May 1 6:30 am, Mumbai, Weather by CustomWeather, © 2017

Note: Actual official high and low records may vary slightly from our data, if they occured in-between our weather recording intervals... More about our weather records

Advertising

Mumbai Weather History for the Previous 24 Hours

Scroll right to see more
 ConditionsComfort  
Time TempWeatherWind HumidityBarometerVisibility
6:30 am
Mon, May 1
82 °FPassing clouds.6 mph79%29.80 "Hg2 mi
6:00 am82 °FPassing clouds.3 mph79%29.80 "Hg2 mi
5:30 am82 °FPassing clouds.No wind79%29.80 "Hg2 mi
5:00 am84 °FPassing clouds.5 mph74%29.80 "Hg2 mi
4:30 am82 °FPassing clouds.5 mph79%29.77 "Hg2 mi
4:00 am82 °FPassing clouds.5 mph79%29.80 "Hg2 mi
3:30 am82 °FPassing clouds.5 mph79%29.80 "Hg2 mi
3:00 am82 °FPassing clouds.No wind79%29.77 "Hg2 mi
2:30 am82 °FHaze.5 mph79%29.77 "Hg2 mi
2:00 am82 °FHaze.5 mph79%29.80 "Hg2 mi
1:30 am82 °FHaze.5 mph79%29.80 "Hg2 mi
1:00 am82 °FHaze.5 mph79%29.80 "Hg2 mi
12:30 am84 °FHaze.5 mph74%29.80 "Hg2 mi
12:00 am84 °FHaze.5 mph79%29.83 "Hg2 mi
11:30 pm
Sun, Apr 30
84 °FHaze.No wind79%29.83 "Hg2 mi
11:00 pm84 °FHaze.7 mph74%29.80 "Hg2 mi
10:30 pm84 °FHaze.6 mph74%29.80 "Hg2 mi
10:00 pm84 °FHaze.7 mph74%29.80 "Hg2 mi
9:30 pm84 °FHaze.7 mph74%29.83 "Hg2 mi
9:00 pm84 °FHaze.5 mph70%29.83 "Hg2 mi
8:30 pm84 °FPassing clouds.3 mph74%29.83 "Hg2 mi
8:00 pm84 °FPassing clouds.6 mph74%29.83 "Hg2 mi
7:30 pm86 °FPassing clouds.6 mph70%29.83 "Hg3 mi
7:00 pm84 °FScattered clouds.7 mph74%29.83 "Hg3 mi
6:30 pm84 °FScattered clouds.10 mph74%29.80 "Hg3 mi
6:00 pm86 °FScattered clouds.10 mph70%29.77 "Hg4 mi
5:30 pm86 °FScattered clouds.14 mph66%29.77 "Hg4 mi
5:00 pm88 °FPassing clouds.14 mph66%29.77 "Hg4 mi
4:30 pm90 °FPassing clouds.9 mph63%29.80 "Hg4 mi
4:00 pm90 °FPassing clouds.10 mph63%29.80 "Hg4 mi
3:30 pm88 °FPassing clouds.9 mph62%29.80 "Hg4 mi
3:00 pm90 °FPassing clouds.13 mph59%29.80 "Hg4 mi
2:30 pm90 °FPassing clouds.15 mph63%29.83 "Hg4 mi
2:00 pm90 °FClear.12 mph59%29.83 "Hg4 mi
1:30 pm90 °FClear.13 mph55%29.83 "Hg4 mi
1:00 pm90 °FClear.14 mph59%29.86 "Hg4 mi
12:30 pm90 °FClear.13 mph59%29.86 "Hg4 mi
12:00 pm91 °FPassing clouds.12 mph56%29.86 "Hg4 mi
11:30 am90 °FPassing clouds.9 mph55%29.89 "Hg4 mi
11:00 am90 °FPassing clouds.8 mph63%29.89 "Hg4 mi
10:30 am88 °FPassing clouds.8 mph66%29.89 "Hg4 mi
10:00 am88 °FHaze.7 mph59%29.89 "Hg3 mi
9:30 am86 °FHaze.7 mph62%29.89 "Hg3 mi
9:00 am84 °FScattered clouds.7 mph70%29.89 "Hg3 mi
8:30 am84 °FScattered clouds.No wind70%29.86 "Hg2 mi
8:00 am82 °FHaze.5 mph74%29.86 "Hg2 mi
Weather by CustomWeather, © 2017

See weather overviewHow to use our weather pages